Location: ????????
(55.7667°N, 37.4833°E)
Time: 13:48:41
(UTC+00:00)

Cosmos 1953 - Pass Details

Date: 19 May 2025
Orbit: 485 x 501 km, 82.5° (Epoch: 19 June)

Event Time Altitude Azimuth Distance (km) Brightness Sun altitude
Rises 22:17:03 0° 353° (N) 2,573 7.2 -13.5°
Reaches altitude 10° 22:19:18 10° 2° (N) 1,687 6.2 -13.4°
Maximum altitude 22:22:42 35° 70° (ENE) 818 3.5 -13.3°
Drops below altitude 10° 22:26:06 10° 137° (SE) 1,680 4.5 -13.2°
Enters shadow 22:26:28 - 139° (SE) 1,818 4.6 -13.2°
